[[{"header":{"parameterUnit":"m.s-1","parameterCategory":1,"la1":30.2992,"la2":30.254,"lo1":-89.0895,"lo2":-89.0443,"dy":0.0025,"dx":0.0025,"nx":19,"ny":19,"refTime":"2026-03-08T21:00:00:Z","depth":0,"parameterNumber":2,"parameterNumberName":"U-component_of_WINDS"},"data":[0,0,0,-1.5647,-1.5648,-1.5674,-1.5674,-1.5713,-1.5713,0,0,0,0,0,0,0,0,0,0,0,-1.5643,-1.5643,-1.5647,-1.5648,-1.5674,-1.5674,-1.5713,-1.5713,0,0,0,0,0,0,0,0,0,0,0,-1.5643,-1.5643,-1.5643,-1.5648,-1.5674,-1.5674,-1.5713,-1.5691,0,0,0,0,0,0,0,0,0,0,-1.5665,-1.5664,-1.5643,-1.5643,-1.5648,-1.5674,-1.5674,-1.569,-1.5693,-1.5704,0,-1.5713,0,-1.5714,-1.5716,-1.5716,0,0,0,-1.5646,-1.5662,-1.5666,-1.5644,-1.5649,-1.5674,-1.5662,-1.5691,-1.5694,-1.5707,-1.5714,-1.5715,-1.5715,-1.5716,-1.5717,-1.5785,-1.5786,0,0,-1.5645,-1.5649,-1.5664,-1.5668,-1.5663,-1.5661,-1.5662,-1.5693,-1.5701,-1.5714,-1.5716,-1.5715,-1.5717,-1.5717,-1.5785,-1.5785,0,0,0,-1.5642,-1.5648,-1.5652,-1.5666,-1.5671,-1.5662,-1.5664,-1.57,-1.5701,-1.5716,-1.5716,-1.5717,-1.5718,-1.5784,-1.5785,-1.5809,0,0,0,-1.5641,-1.5647,-1.5651,-1.5654,-1.567,-1.5685,-1.567,-1.5699,-1.5702,-1.5716,-1.5717,-1.5718,-1.5784,-1.5785,-1.5807,-1.5819,0,0,0,-1.564,-1.5646,-1.5651,-1.5654,-1.5665,-1.5685,-1.5687,-1.5699,-1.5702,-1.5716,-1.5718,-1.5784,-1.5785,-1.5806,-1.5817,-1.5838,0,0,0,-1.564,-1.5672,-1.5652,-1.5687,-1.5665,-1.57,-1.5687,-1.5713,-1.5728,-1.5717,-1.5784,-1.5785,-1.5805,-1.5815,-1.5836,-1.5855,-1.5864,0,0,-1.5683,-1.5678,-1.5698,-1.568,-1.5719,-1.5695,-1.5738,-1.5749,-1.5747,-1.5773,-1.5774,-1.5808,-1.5816,-1.5837,-1.5913,-1.592,0,0,0,-1.5713,-1.5728,-1.5737,-1.5752,-1.5761,-1.5769,-1.5773,-1.5777,-1.5799,-1.5761,-1.5822,-1.5827,-1.5839,-1.5848,-1.5854,-1.5864,-1.579,-1.5789,-1.5789,-1.5778,-1.5774,-1.5808,-1.5806,-1.5821,-1.5825,-1.5837,-1.5843,-1.5834,-1.5849,-1.5856,-1.5903,-1.5913,-1.5918,-1.5928,-1.5867,-1.5867,-1.5867,-1.5867,-1.5839,-1.5859,-1.5848,-1.5876,-1.5871,-1.5895,-1.5901,-1.5894,-1.5916,-1.5897,-1.5907,-1.5885,-1.5926,-1.5934,-1.5869,-1.5869,-1.5869,-1.5868,-1.5868,-1.5881,-1.5889,-1.5894,-1.5915,-1.5932,-1.5931,-1.5953,-1.5948,-1.5944,-1.5955,-1.5962,-1.5961,-1.596,-1.5959,-1.5959,-1.5959,-1.5959,-1.596,-1.596,-1.5921,-1.5925,-1.5944,-1.5956,-1.5966,-1.5977,-1.5983,-1.5992,-1.6001,-1.5996,-1.5996,-1.5986,-1.5931,-1.5916,-1.5962,-1.5962,-1.5961,-1.5961,-1.5961,-1.5982,-1.5968,-1.5996,-1.6005,-1.602,-1.6038,-1.6033,-1.6052,-1.6059,-1.607,-1.6059,-1.6019,-1.6013,-1.6008,-1.5996,-1.606,-1.606,-1.606,-1.606,-1.6016,-1.6013,-1.6041,-1.6056,-1.6071,-1.6069,-1.6102,-1.6107,-1.611,-1.6115,-1.6105,-1.6089,-1.6085,-1.6082,-1.6075,-1.6064,-1.6144,-1.6144,-1.6144,-1.6053,-1.6052,-1.6079,-1.6082,-1.6093,-1.6104,-1.6135,-1.6153,-1.6154,-1.6147,-1.6118,-1.6114,-1.6089,-1.6081,-1.6071,-1.6061,-1.604,0,0]},{"header":{"parameterUnit":"m.s-1","parameterCategory":1,"la1":30.2992,"la2":30.254,"lo1":-89.0895,"lo2":-89.0443,"dy":0.0025,"dx":0.0025,"nx":19,"ny":19,"refTime":"2026-03-08T21:00:00:Z","depth":0,"parameterNumber":3,"parameterNumberName":"V-component_of_WINDS"},"data":[0,0,0,2.5671,2.5671,2.5684,2.5684,2.5686,2.5686,0,0,0,0,0,0,0,0,0,0,0,2.566,2.566,2.5671,2.5671,2.5684,2.5684,2.5686,2.5686,0,0,0,0,0,0,0,0,0,0,0,2.566,2.566,2.566,2.5671,2.5684,2.5684,2.5686,2.5681,0,0,0,0,0,0,0,0,0,0,2.5671,2.5654,2.566,2.566,2.5672,2.5684,2.5684,2.5681,2.5681,2.5675,0,2.5668,0,2.5677,2.5685,2.5685,0,0,0,2.5676,2.5654,2.5664,2.566,2.5672,2.5684,2.568,2.5681,2.5682,2.5675,2.5668,2.5668,2.5677,2.5685,2.5685,2.5635,2.5634,0,0,2.5676,2.5658,2.5664,2.5664,2.5663,2.5679,2.568,2.5682,2.5672,2.5668,2.5669,2.5677,2.5685,2.5685,2.5635,2.5635,0,0,0,2.567,2.5657,2.5668,2.5664,2.5667,2.5679,2.568,2.5672,2.5677,2.5669,2.5677,2.5685,2.5685,2.5636,2.5635,2.5597,0,0,0,2.567,2.5654,2.5667,2.5657,2.5667,2.567,2.567,2.5677,2.5678,2.5677,2.5685,2.5685,2.5636,2.5635,2.5599,2.5581,0,0,0,2.5662,2.5654,2.5653,2.5656,2.5661,2.5671,2.5676,2.5678,2.5683,2.5685,2.5685,2.5637,2.5635,2.5601,2.5584,2.5564,0,0,0,2.5648,2.5617,2.5652,2.5621,2.5661,2.5647,2.5676,2.5666,2.5664,2.5685,2.5636,2.5635,2.5601,2.5586,2.5566,2.5544,2.5533,0,0,2.5599,2.561,2.5593,2.5626,2.5602,2.5647,2.5617,2.563,2.5645,2.5637,2.5636,2.5598,2.5584,2.5564,2.5478,2.5469,0,0,0,2.5572,2.556,2.5557,2.5555,2.5566,2.5574,2.5594,2.5599,2.5594,2.5638,2.5586,2.5578,2.5567,2.5557,2.555,2.5542,2.563,2.563,2.563,2.5477,2.55,2.5474,2.55,2.5497,2.552,2.552,2.553,2.5552,2.554,2.5537,2.5483,2.5471,2.5465,2.5457,2.5528,2.5527,2.5527,2.5527,2.5408,2.5395,2.5428,2.5415,2.544,2.5428,2.5449,2.5465,2.5458,2.5486,2.5477,2.5505,2.5455,2.5449,2.5524,2.5525,2.5525,2.5526,2.5526,2.5348,2.5346,2.5355,2.5357,2.5355,2.5381,2.5374,2.5396,2.5416,2.5407,2.5408,2.5409,2.5413,2.5407,2.5406,2.5406,2.5406,2.5406,2.5406,2.5283,2.5295,2.5287,2.5298,2.5301,2.5307,2.5331,2.5334,2.5343,2.5359,2.5359,2.5383,2.5446,2.5462,2.5403,2.5403,2.5404,2.5404,2.5404,2.5205,2.5227,2.5215,2.5218,2.5234,2.5231,2.5261,2.5266,2.5271,2.5267,2.5294,2.5336,2.5349,2.5355,2.5368,2.5288,2.5288,2.5288,2.5288,2.5155,2.5165,2.5159,2.5163,2.5169,2.5195,2.518,2.5199,2.5221,2.5226,2.5241,2.526,2.5265,2.5275,2.5282,2.5295,2.5199,2.5199,2.5199,2.5109,2.5121,2.5104,2.5129,2.5143,2.5155,2.5142,2.5145,2.5175,2.5195,2.5231,2.5235,2.5266,2.5275,2.5296,2.5307,2.5331,0,0]}]]